Showing default

FOSSASAT2E24, 66780

Orbit data source: Space-Track

FOSSASAT2E24, 66780 is a Spanish payload satellite in SSO that was launched on Fri, 28 Nov 2025 UTC via an FALCON 9 launch vehicle from the Air Force Western Test Range (AFWTR). Payload-class satellites include a variety of spacecraft equipped with specific instruments for various scientific and technological missions. These include communications satellites like Starlink; space stations such as the ISS; scientific satellites like the Hubble; Earth observation satellites from companies like Planet Labs, Umbra, and HawkEye 360; GPS; miniature CubeSats for education and research; and military/defense satellites.

Loading next visibility...
Identifier
66780, 2025-276DV
Orbit
SSO
Country
Flag of ESES / SPN
Related business
None
Manufacturer
Unknown
Mission
Operational Commercial Communications
Bus & Motor
Unknown
Mass
Unknown
Launch date (UTC)
2025-11-28 (2 months ago)
Launch vehicle
FALCON 9
Launch site
Air Force Western Test Range (AFWTR)
Object type
Payload
Rocket body
Debris
Shape & HBR
Box, 0.1 m
Radar Cross Section
0.035 m²

Expand to show TLE details & history
Last TLE update: 4 hours ago

TLE from 4 hours ago
0 FOSSASAT2E24
1 66780U 25276DV  26035.15775560  .00010217  00000-0  50763-3 0  9996
2 66780  97.4315 110.9255 0003626 221.4406 138.6553 15.17844980 10220
Epoch: 2026-02-04T03:47Z
TLE epoch observation values (Epoch: 2026-02-04T03:47:10.083Z)
Latitude
-0.00007°
Longitude
-80.19486°
Altitude
517.318 km
Speed
7.604 km/s
True Right ascension
07h 23m 42s
True Declination
0° 00' 00"
Sunlit
Object was in full shadow at epoch
Visualization orbit readout
Latitude
Unknown
Longitude
Unknown
Altitude
Unknown
Speed
Unknown
Apparent Right ascension
Unknown
Apparent Declination
Unknown
Sunlit
N/A
Visualization observer readout
Local Sidereal Time
10:13:27
Azimuth
Unknown
Elevation
Unknown
Doppler factor
Unknown
Orbital elements
Apogee altitude
511.822 km
Perigee altitude
506.827 km
Semi-major axis
6,887.462 km
Eccentricity
0.00036
Inclination
97.4315°
RAAN
110.9255°
Arg. of periapsis
221.4406°
True anomaly
138.68274°
Mean anomaly
138.6553°
Eccentric anomaly
138.66902°
Mean motion
3.79712 °/min
Orbital period
94.81 mins
BSTAR
0.00050763
Loading maneuver chart data...
Computing Atmospheric mass density...
Loading historical data...
Loading historical data...
Loading historical data...
Loading historical data...
Loading historical data...
Loading historical data...
Loading historical data...

Documentation

Showing up to 5 results
|